Вернуться в каталог

FENGYUN 1C DEB

АктивенSSO
NORAD 43213·DEBRIS·🇨🇳 China

Запущен May 10, 1999 с Taiyuan Satellite Launch Center

Loading…

Ближайшие Пролёты (ближайшие 24 часа)

TLE

СвежийSource: Space-Track

Эпоха: Sep 14, 2026, 15:09 UTC

1 43213U 99025EYM 26257.63191078  .00001902  00000-0  81233-3 0  9997
2 43213  98.7161 325.2511 0055064 147.5456 212.9129 14.25372328443013

Отслеживайте FENGYUN 1C DEB в реальном времени с AllMySat

Download on the App Store